| time (UTC) | temp C | wind direction | speed KPH | gust KPH | rain 1hr cm | rain 24hr cm | rain mn cm | humidity % | barometer mb |
| 20260906234502 | 22 | 176 | 0.0 | 0.0 | 0.00 | 0.00 | 0.00 | 39 | 1004.7 |
| 20260906233058 | 22 | 184 | 0.0 | 0.0 | 0.00 | 0.00 | 0.00 | 39 | 1004.9 |
| 20260906231605 | 22 | 177 | 0.0 | 0.0 | 0.00 | 0.00 | 0.00 | 39 | 1005.0 |
| 20260906230048 | 22 | 176 | 0.0 | 0.0 | 0.00 | 0.00 | 0.00 | 38 | 1005.3 |
| 20260906224544 | 23 | 175 | 0.0 | 0.0 | 0.00 | 0.00 | 0.00 | 37 | 1005.6 |
| 20260906223040 | 23 | 360 | 0.0 | 0.0 | 0.00 | 0.00 | 0.00 | 36 | 1005.7 |
| 20260906221537 | 23 | 173 | 0.0 | 0.0 | 0.00 | 0.00 | 0.00 | 36 | 1005.8 |
| 20260906220033 | 23 | 167 | 0.0 | 0.0 | 0.00 | 0.00 | 0.00 | 37 | 1006.0 |
| 20260906214526 | 23 | 188 | 0.0 | 0.0 | 0.00 | 0.00 | 0.00 | 35 | 1006.0 |
| 20260906213022 | 23 | 144 | 0.0 | 0.0 | 0.00 | 0.00 | 0.00 | 35 | 1005.8 |
| 20260906211518 | 23 | 165 | 0.0 | 0.0 | 0.00 | 0.00 | 0.00 | 34 | 1006.0 |
| 20260906210016 | 23 | 183 | 0.0 | 0.0 | 0.00 | 0.00 | 0.00 | 35 | 1006.2 |
| 20260906204509 | 23 | 164 | 0.0 | 0.0 | 0.00 | 0.00 | 0.00 | 33 | 1006.2 |
| 20260906203014 | 24 | 178 | 0.0 | 0.0 | 0.00 | 0.00 | 0.00 | 30 | 1006.4 |
| 20260906201600 | 24 | 155 | 0.0 | 0.0 | 0.00 | 0.00 | 0.00 | 31 | 1006.6 |
| 20260906200056 | 24 | 185 | 0.0 | 0.0 | 0.00 | 0.00 | 0.00 | 31 | 1006.5 |
| 20260906194604 | 24 | 134 | 0.0 | 0.0 | 0.00 | 0.00 | 0.00 | 31 | 1006.8 |
| 20260906193047 | 24 | 167 | 0.0 | 0.0 | 0.00 | 0.00 | 0.00 | 31 | 1006.8 |
| 20260906191545 | 23 | 169 | 0.0 | 0.0 | 0.00 | 0.00 | 0.00 | 29 | 1006.9 |
| 20260906190038 | 24 | 178 | 0.0 | 0.0 | 0.00 | 0.00 | 0.00 | 28 | 1006.9 |
| 20260906184534 | 25 | 158 | 0.0 | 0.0 | 0.00 | 0.00 | 0.00 | 29 | 1007.0 |
| 20260906183039 | 25 | 161 | 0.0 | 0.0 | 0.00 | 0.00 | 0.00 | 30 | 1007.2 |
| 20260906181535 | 24 | 174 | 0.0 | 0.0 | 0.00 | 0.00 | 0.00 | 29 | 1007.2 |
| 20260906180027 | 24 | 168 | 0.0 | 0.0 | 0.00 | 0.00 | 0.00 | 29 | 1007.4 |
| 20260906174515 | 24 | 360 | 0.0 | 0.0 | 0.00 | 0.00 | 0.00 | 31 | 1007.9 |
| 20260906173011 | 23 | 175 | 0.0 | 0.0 | 0.00 | 0.00 | 0.00 | 33 | 1008.0 |
| 20260906171508 | 23 | 152 | 0.0 | 0.0 | 0.00 | 0.00 | 0.00 | 33 | 1008.2 |
| 20260906170003 | 23 | 168 | 0.0 | 0.0 | 0.00 | 0.00 | 0.00 | 35 | 1008.5 |
| 20260906164558 | 22 | 167 | 0.0 | 0.0 | 0.00 | 0.00 | 0.00 | 34 | 1008.7 |
| 20260906163055 | 19 | 153 | 0.0 | 0.0 | 0.00 | 0.00 | 0.00 | 43 | 1008.9 |
| 20260906161613 | 17 | 143 | 0.0 | 0.0 | 0.00 | 0.00 | 0.00 | 43 | 1009.5 |
| 20260906160045 | 15 | 143 | 0.0 | 0.0 | 0.00 | 0.00 | 0.00 | 41 | 1009.8 |
| 20260906154546 | 14 | 143 | 0.0 | 0.0 | 0.00 | 0.00 | 0.00 | 42 | 1010.1 |
| 20260906153043 | 13 | 143 | 0.0 | 0.0 | 0.00 | 0.00 | 0.00 | 43 | 1010.4 |
| 20260906151533 | 12 | 143 | 0.0 | 0.0 | 0.00 | 0.00 | 0.00 | 41 | 1010.6 |
| 20260906150032 | 12 | 143 | 0.0 | 0.0 | 0.00 | 0.00 | 0.00 | 35 | 1010.8 |
| 20260906144525 | 11 | 143 | 0.0 | 0.0 | 0.00 | 0.00 | 0.00 | 21 | 1010.9 |
| 20260906143017 | 10 | 143 | 0.0 | 0.0 | 0.00 | 0.00 | 0.00 | 10 | 1011.0 |
| 20260906141513 | 9 | 143 | 0.0 | 0.0 | 0.00 | 0.00 | 0.00 | 9 | 1011.0 |
| 20260906140011 | 8 | 143 | 0.0 | 0.0 | 0.00 | 0.00 | 0.00 | 12 | 1010.9 |
| 20260906134504 | 6 | 143 | 0.0 | 0.0 | 0.00 | 0.00 | 0.00 | 12 | 1010.8 |
| 20260906133109 | 6 | 143 | 0.0 | 0.0 | 0.00 | 0.00 | 0.00 | 14 | 1010.7 |
| 20260906131606 | 6 | 143 | 0.0 | 0.0 | 0.00 | 0.00 | 0.00 | 14 | 1010.4 |
| 20260906130058 | 6 | 143 | 0.0 | 0.0 | 0.00 | 0.00 | 0.00 | 15 | 1010.5 |
| 20260906124547 | 6 | 143 | 0.0 | 0.0 | 0.00 | 0.00 | 0.00 | 16 | 1010.5 |
| 20260906123043 | 6 | 143 | 0.0 | 0.0 | 0.00 | 0.00 | 0.00 | 16 | 1010.4 |
| 20260906121542 | 6 | 143 | 0.0 | 0.0 | 0.00 | 0.00 | 0.00 | 16 | 1010.3 |
| 20260906120038 | 6 | 143 | 0.0 | 0.0 | 0.00 | 0.00 | 0.00 | 18 | 1010.4 |
| 20260906114546 | 7 | 143 | 0.0 | 0.0 | 0.00 | 0.00 | 0.00 | 18 | 1010.2 |
| 20260906113035 | 7 | 143 | 0.0 | 0.0 | 0.00 | 0.00 | 0.00 | 18 | 1010.2 |
| 20260906111541 | 7 | 143 | 0.0 | 0.0 | 0.00 | 0.00 | 0.00 | 18 | 1010.2 |
| 20260906110029 | 7 | 143 | 0.0 | 0.0 | 0.00 | 0.00 | 0.00 | 23 | 1010.1 |
| 20260906104531 | 7 | 143 | 0.0 | 0.0 | 0.00 | 0.00 | 0.00 | 25 | 1009.9 |
| 20260906103023 | 7 | 143 | 0.0 | 0.0 | 0.00 | 0.00 | 0.00 | 33 | 1009.7 |
| 20260906101523 | 8 | 143 | 0.0 | 0.0 | 0.00 | 0.00 | 0.00 | 49 | 1009.4 |
| 20260906100028 | 8 | 143 | 0.0 | 0.0 | 0.00 | 0.00 | 0.00 | 52 | 1009.2 |
| 20260906094514 | 8 | 143 | 0.0 | 0.0 | 0.00 | 0.00 | 0.00 | 54 | 1009.0 |
| 20260906093015 | 8 | 143 | 0.0 | 0.0 | 0.00 | 0.00 | 0.00 | 56 | 1009.0 |
| 20260906091511 | 8 | 143 | 0.0 | 0.0 | 0.00 | 0.00 | 0.00 | 57 | 1008.8 |
| 20260906090007 | 9 | 143 | 0.0 | 0.0 | 0.00 | 0.00 | 0.00 | 57 | 1008.8 |
| 20260906084509 | 9 | 143 | 0.0 | 0.0 | 0.00 | 0.00 | 0.00 | 57 | 1008.8 |
| 20260906083003 | 9 | 143 | 0.0 | 0.0 | 0.00 | 0.00 | 0.00 | 57 | 1008.6 |
| 20260906081501 | 9 | 143 | 0.0 | 0.0 | 0.00 | 0.00 | 0.00 | 57 | 1008.6 |
| 20260906080059 | 10 | 143 | 0.0 | 0.0 | 0.00 | 0.00 | 0.00 | 57 | 1008.7 |
| 20260906074556 | 10 | 143 | 0.0 | 0.0 | 0.00 | 0.00 | 0.00 | 57 | 1008.6 |
| 20260906073054 | 10 | 143 | 0.0 | 0.0 | 0.00 | 0.00 | 0.00 | 56 | 1008.5 |
| 20260906071554 | 10 | 143 | 0.0 | 0.0 | 0.00 | 0.00 | 0.00 | 56 | 1008.6 |
| 20260906070053 | 10 | 143 | 0.0 | 0.0 | 0.00 | 0.00 | 0.00 | 56 | 1008.4 |
| 20260906064549 | 11 | 143 | 0.0 | 0.0 | 0.00 | 0.00 | 0.00 | 55 | 1008.2 |
| 20260906063044 | 11 | 143 | 0.0 | 0.0 | 0.00 | 0.00 | 0.00 | 53 | 1008.2 |
| 20260906061546 | 12 | 143 | 0.0 | 0.0 | 0.00 | 0.00 | 0.00 | 50 | 1008.1 |
| 20260906060044 | 12 | 143 | 0.0 | 0.0 | 0.00 | 0.00 | 0.00 | 50 | 1008.0 |
| 20260906054542 | 12 | 143 | 0.0 | 0.0 | 0.00 | 0.00 | 0.00 | 51 | 1008.0 |
| 20260906053030 | 12 | 143 | 0.0 | 0.0 | 0.00 | 0.00 | 0.00 | 52 | 1007.8 |
| 20260906051525 | 13 | 143 | 0.0 | 0.0 | 0.00 | 0.00 | 0.00 | 49 | 1007.8 |
| 20260906050021 | 13 | 143 | 0.0 | 0.0 | 0.00 | 0.00 | 0.00 | 45 | 1007.7 |
| 20260906044519 | 13 | 143 | 0.0 | 0.0 | 0.00 | 0.00 | 0.00 | 47 | 1007.7 |
| 20260906043026 | 13 | 143 | 0.0 | 0.0 | 0.00 | 0.00 | 0.00 | 47 | 1007.6 |
| 20260906041508 | 14 | 143 | 0.0 | 0.0 | 0.00 | 0.00 | 0.00 | 44 | 1007.4 |
| 20260906040004 | 15 | 143 | 0.0 | 0.0 | 0.00 | 0.00 | 0.00 | 41 | 1007.1 |
| 20260906034606 | 16 | 143 | 0.0 | 0.0 | 0.00 | 0.00 | 0.00 | 39 | 1006.9 |
| 20260906033055 | 16 | 143 | 0.0 | 0.0 | 0.00 | 0.00 | 0.00 | 39 | 1006.7 |
| 20260906031551 | 16 | 143 | 0.0 | 0.0 | 0.00 | 0.00 | 0.00 | 39 | 1006.5 |
| 20260906030046 | 17 | 143 | 0.0 | 0.0 | 0.00 | 0.00 | 0.00 | 35 | 1006.3 |
| 20260906024543 | 18 | 143 | 0.0 | 0.0 | 0.00 | 0.00 | 0.00 | 32 | 1006.0 |
| 20260906023037 | 20 | 143 | 0.0 | 0.0 | 0.00 | 0.00 | 0.00 | 30 | 1005.6 |
| 20260906021540 | 20 | 172 | 0.0 | 0.0 | 0.00 | 0.00 | 0.00 | 29 | 1005.3 |
| 20260906020029 | 21 | 208 | 0.0 | 0.0 | 0.00 | 0.00 | 0.00 | 26 | 1005.1 |
| 20260906014526 | 22 | 221 | 0.0 | 0.0 | 0.00 | 0.00 | 0.00 | 25 | 1005.1 |
| 20260906013022 | 24 | 234 | 0.0 | 0.0 | 0.00 | 0.00 | 0.00 | 19 | 1005.0 |
| 20260906011517 | 25 | 233 | 0.0 | 1.6 | 0.00 | 0.00 | 0.00 | 18 | 1004.9 |
| 20260906010013 | 25 | 238 | 0.0 | 16.1 | 0.00 | 0.00 | 0.00 | 19 | 1005.0 |
| 20260906004509 | 26 | 233 | 0.0 | 0.0 | 0.00 | 0.00 | 0.00 | 17 | 1005.0 |
| 20260906003004 | 26 | 244 | 0.0 | 0.0 | 0.00 | 0.00 | 0.00 | 19 | 1004.9 |
| 20260906001605 | 26 | 226 | 0.0 | 0.0 | 0.00 | 0.00 | 0.00 | 20 | 1004.9 |
| 20260906000056 | 26 | 213 | 0.0 | 0.0 | 0.00 | 0.00 | 0.00 | 18 | 1004.9 |